Caslav, Czech Republic

5:59 PM CEST on April 24, 2017 (GMT +0200)
Caslav

Weather History for LKCV - March, 2013

Change the Weather History Date:

Sunday, March 10, 2013

  Actual Average Record
Temperature  
Mean Temperature 45 °F -  
Max Temperature 51 °F - - ()
Min Temperature 39 °F - - ()
Degree Days  
Heating Degree Days 20    
Moisture  
Dew Point 42 °F    
Average Humidity 95    
Maximum Humidity 100    
Minimum Humidity 82    
Precipitation  
Precipitation 0.00 in - - ()
Sea Level Pressure  
Sea Level Pressure 29.49 in    
Wind  
Wind Speed 1 mph ()    
Max Wind Speed 7 mph    
Max Gust Speed -    
Visibility 2.6 miles    
Events Fog , Thunderstorm    
T = Trace of Precipitation, MM = Missing Value Source: Averaged Metar Reports

Daily Weather History Graph

Daily Weather History Graph

Search for Another Location

Airport or City:

Trip Planner

Search our weather history database for the weather conditions in past years. The results will help you decide how hot, cold, wet, or windy it might be!

Date:

Astronomy

Mar. 10, 2013 Rise Set
Actual Time 6:22 AM CET 5:55 PM CET
Civil Twilight 5:50 AM CET 6:27 PM CET
Nautical Twilight 5:13 AM CET 7:05 PM CET
Astronomical Twilight 4:35 AM CET 7:43 PM CET
Moon 5:18 AM CET (3/10) 4:41 PM CET (3/10)
Length of Visible Light 12h 36m
Length of Day
11h 32m
Waning Crescent, 2% of the Moon is Illuminated
Mar 10
Waning Crescent
Mar 11
New
Mar 19
First Quarter
Mar 27
Full
Apr 3
Last Quarter

Hourly Weather History & Observations

Time (CET) Temp. Windchill Dew Point Humidity Pressure Visibility Wind Dir Wind Speed Gust Speed Precip Events Conditions
12:00 AM 39.2 °F - 39.2 °F 100% 29.56 in 0.9 mi NW 2.3 mph - N/A   Overcast
1:00 AM 39.2 °F - 39.2 °F 100% 29.56 in 0.9 mi Calm Calm - N/A   Overcast
2:00 AM 39.2 °F - 39.2 °F 100% 29.56 in 0.9 mi Calm Calm - N/A   Overcast
3:00 AM 39.2 °F - 39.2 °F 100% 29.53 in 0.6 mi Calm Calm - N/A   Overcast
3:02 AM 39.2 °F - 39.2 °F 100% 29.53 in 0.6 mi Calm Calm - N/A   Overcast
4:00 AM 39.2 °F - 39.2 °F 100% 29.53 in 0.6 mi Calm Calm - N/A   Overcast
4:01 AM 39.2 °F - 39.2 °F 100% 29.53 in 0.4 mi Calm Calm - N/A Fog Fog
5:00 AM 39.2 °F - 39.2 °F 100% 29.53 in 0.4 mi Calm Calm - N/A Fog Fog
6:00 AM 39.2 °F - 39.2 °F 100% 29.50 in 0.4 mi Calm Calm - N/A Fog Fog
7:00 AM 39.2 °F - 39.2 °F 100% 29.50 in 0.2 mi Calm Calm - N/A Fog Fog
8:00 AM 41.0 °F - 41.0 °F 100% 29.50 in 0.4 mi SE 2.3 mph - N/A Fog Fog
8:23 AM 42.8 °F - 41.0 °F 93% 29.50 in 3.1 mi Calm Calm - N/A   Mostly Cloudy
9:00 AM 42.8 °F - 42.8 °F 100% 29.50 in 3.1 mi Calm Calm - N/A   Mostly Cloudy
10:00 AM 46.4 °F - 44.6 °F 93% 29.50 in 3.1 mi Calm Calm - N/A   Mist
11:00 AM 48.2 °F - 42.8 °F 82% 29.50 in 3.1 mi NNW 2.3 mph - N/A   Mostly Cloudy
12:00 PM 50.0 °F - 44.6 °F 82% 29.50 in 3.1 mi Variable 2.3 mph - N/A   Mostly Cloudy
1:00 PM 50.0 °F - 46.4 °F 87% 29.47 in 3.1 mi North 3.5 mph - N/A   Mostly Cloudy
2:00 PM 51.8 °F - 46.4 °F 82% 29.44 in 4.3 mi Variable 2.3 mph - N/A   Mostly Cloudy
3:00 PM 51.8 °F - 46.4 °F 82% 29.44 in 5.0 mi North 4.6 mph - N/A   Mostly Cloudy
3:19 PM 50.0 °F - 46.4 °F 87% 29.44 in 5.0 mi NNE 3.5 mph - N/A Thunderstorm Thunderstorm
4:00 PM 50.0 °F - 46.4 °F 87% 29.44 in 5.0 mi Variable 4.6 mph - N/A   Mostly Cloudy
5:00 PM 50.0 °F - 48.2 °F 94% 29.44 in 4.3 mi ENE 4.6 mph - N/A   Scattered Clouds
6:00 PM 46.4 °F 43.5 °F 44.6 °F 93% 29.44 in 4.3 mi East 5.8 mph - N/A   Mostly Cloudy
7:00 PM 44.6 °F 42.2 °F 44.6 °F 100% 29.44 in 4.3 mi ESE 4.6 mph - N/A   Unknown
8:00 PM 42.8 °F 40.1 °F 42.8 °F 100% 29.44 in 4.3 mi SE 4.6 mph - N/A   Partly Cloudy
9:00 PM 42.8 °F 40.1 °F 42.8 °F 100% 29.44 in 4.3 mi East 4.6 mph - N/A   Unknown
10:00 PM 41.0 °F 36.4 °F 41.0 °F 100% 29.44 in 4.3 mi SSE 6.9 mph - N/A   Unknown
11:00 PM 42.8 °F 41.1 °F 41.0 °F 93% 29.44 in - ESE 3.5 mph - N/A   Clear